Other Public Products
Issued by NWS Grand Forks, ND

Home | Current Version | Previous Version | Graphics & Text | Print | Product List | Glossary On
Versions: 1 2 3 4 5 6 7 8 9 10 11 12 13 14 15 16 17 18 19 20 21 22 23 24 25 26 27 28 29 30 31 32 33 34 35 36 37 38 39 40 41 42 43 44 45 46 47 48 49 50
000
FPUS83 KFGF 250810
OPUFGF
PRAIRIE TO PINES WEATHER ROUNDUP
NATIONAL WEATHER SERVICE EASTERN NORTH DAKOTA/GRAND FORKS ND
200 AM CST SAT NOV 25 2017

 **SATELLITE DATA USED TO AUGMENT SKY COVER AT AUTOMATED STATIONS**
 *****  WEATHER ACROSS EASTERN NORTH DAKOTA  *****

CITY           SKY/WX    TMP DP  RH WIND       PRES   REMARKS
GRAND FORKS    CLOUDY    26  20  77 N16       29.94R WCI  14
GRND FORKS AFB CLOUDY    25  19  77 NE10      29.93R WCI  15
GRND FORKS NWS   N/A     25 N/A N/A N6          N/A  WCI  18
BUXTON         NOT AVBL
DEVILS LAKE    FAIR      28  25  88 N8        29.91R WCI  20
FARGO          FAIR      28  25  88 N8        29.90R WCI  20
WAHPETON ARPT  NOT AVBL
$$

 *****  WEATHER ACROSS CENTRAL AND WESTERN NORTH DAKOTA  *****

CITY           SKY/WX    TMP DP  RH WIND       PRES   REMARKS
JAMESTOWN      FAIR      30  28  92 W8        29.91R WCI  22
BISMARCK       FAIR      32  27  81 W5        29.95R
MINOT          FAIR      28  25  88 W5        29.90S WCI  23
MINOT AFB      FAIR      23  21  93 W6        29.90S WCI  16
GARRISON         N/A     27  25  92 N6        29.92R WCI  20
WILLISTON      FAIR      31  24  75 W5        29.94R
DICKINSON      FAIR      32  25  75 W12       29.94R WCI  23
HETTINGER      FAIR      27  22  81 NW7       30.00R WCI  19
$$

 *****  OTHER OBSERVATIONS NORTHEAST NORTH DAKOTA  *****

CITY           SKY/WX    TMP DP  RH WIND       PRES   REMARKS
WALHALLA       FAIR      21  18  86 N14       29.95R WCI   8
LANGDON        FAIR      21  21 100 N9        29.90R WCI  11
CAVALIER       CLOUDY    21  14  73 N14       29.95R WCI   8
GRAFTON        CLOUDY    23  16  74 N14       29.96R WCI  11
CANDO          CLOUDY    27  27 100 N7        29.93R WCI  19
FORT TOTTEN      N/A     29  28  96 N2        29.95S
ROLLA          CLOUDY    27  21  80 NW12      29.91R WCI  16
RUGBY          FAIR      23  23 100 W6        29.92R WCI  16
 ***** THE ABOVE OBSERVATIONS ARE NON NWS ARE NOT QUALITY
        CONTROLLED AND MAY MIS-REPORT RAIN FOR SNOW...
$$

 *****  OTHER OBSERVATIONS SOUTHEAST NORTH DAKOTA *****

CITY           SKY/WX    TMP DP  RH WIND       PRES   REMARKS
COOPERSTOWN    FAIR      30  28  93 NW9       29.91R WCI  22
VALLEY CITY    FAIR      30  30 100 NW8       29.92R WCI  23
OAKES            N/A     28  28 100 NW7       29.92R WCI  21
GWINNER          N/A     34  30  86 W7        29.91R
SHEYENNE NWR     N/A     32  30  91 NW6       29.95S
BUFFALO        NOT AVBL
WYNDMERE       NOT AVBL
 ***** THE ABOVE OBSERVATIONS ARE NON NWS ARE NOT QUALITY
       CONTROLLED AND MAY MIS-REPORT RAIN FOR SNOW...
$$

  *****  WEATHER ACROSS NORTHERN MINNESOTA  *****

CITY           SKY/WX    TMP DP  RH WIND       PRES   REMARKS
FLAG ISLAND    FAIR      14   5  67 NW24      29.86R WCI  -5
WARROAD        FAIR      18  12  79 NW8       29.88R WCI   7
ROSEAU         FAIR      19  14  79 NW10      29.88R WCI   8
HALLOCK        FAIR      19  12  73 N9        29.93R WCI   9
THF RVR FALLS  FAIR      22  14  71 NW21      29.90R WCI   6
HALSTAD        NOT AVBL
FOSSTON        FAIR      23  18  80 NW13      29.88R WCI  11
BAUDETTE       FAIR      19  10  68 NW17G26   29.82R WCI   4
WASKISH        FAIR      25  16  68 NW15      29.82R WCI  12
CROOKSTON      CLOUDY    25  18  74 N20G28    29.93R WCI  11
$$
  *****  WEATHER ACROSS CENTRAL AND WEST MINNESOTA  *****

CITY           SKY/WX    TMP DP  RH WIND       PRES   REMARKS
BEMIDJI        CLOUDY    28  20  72 NW20G26   29.81R WCI  14
PARK RAPIDS    FAIR      30  23  75 NW15G25   29.81R WCI  19
WADENA         FAIR      30  27  86 NW13      29.82R WCI  20
DETROIT LAKES  FAIR      30  27  86 NW13      29.86R WCI  20
MOORHEAD       FAIR      28  25  86 CALM      29.90R
FERGUS FALLS   FAIR      32  28  86 NW13      29.89R WCI  22
ELBOW LAKE     FAIR      32  29  91 W9        29.87R WCI  24
MORRIS MN      FAIR      34  30  86 NW10      29.88R
STAPLES        FAIR      30  27  86 NW17G25   29.81R WCI  18
WHEATON        FAIR      34  28  80 W7        29.92R
$$
  *****  WEATHER ELSEWHERE ACROSS MINNESOTA  *****

CITY           SKY/WX    TMP DP  RH WIND       PRES   REMARKS
DULUTH         CLOUDY    32  22  66 NW14G29   29.67R WCI  22
INTRNTL FALLS  FAIR      20  10  65 NW15G22   29.77R WCI   6
ELY            CLOUDY    28  18  64 NW17G28   29.65R WCI  16
CLOQUET        CLOUDY    34  25  69 NW13G26   29.70R WCI  25
BRAINERD       MOCLDY    35  26  69 NW12      29.79R
HIBBING        CLOUDY    29  19  66 NW22G32   29.70R WCI  15
ALEXANDRIA     FAIR      34  30  85 NW13      29.85R WCI  25
SAINT CLOUD    FAIR      36  30  79 NW9       29.80R
MINNEAPOLIS    MOCLDY    39  34  82 W12       29.80R
$$

  *****  WEATHER ACROSS SOUTH DAKOTA  *****

CITY           SKY/WX    TMP DP  RH WIND       PRES   REMARKS
SIOUX FALLS    FAIR      33  29  85 W8        29.98R
BROOKINGS      FAIR      36  30  79 NW12      29.94R
WATERTOWN      FAIR      35  30  82 W10       29.92R
HURON          FAIR      31  28  89 W7        29.96R WCI  24
SISSETON         N/A     35  30  82 NW10      29.91R
ABERDEEN       FAIR      27  24  89 CALM      29.94R
MITCHELL       FAIR      36  31  82 W10       30.00R
PIERRE         FAIR      34  30  85 W12       29.99S
MOBRIDGE       FAIR      32  27  81 NW6       29.94R
RAPID CITY     FAIR      33  20  58 NW6       30.03S
$$

  *****  SOME WEATHER IN NEARBY STATES *****

CITY           SKY/WX    TMP DP  RH WIND       PRES   REMARKS
GLASGOW MT     FAIR      29  24  82 N3        29.97R
GREAT FALLS MT FAIR      34  18  52 SW12      29.99S
CHEYENNE WY    FAIR      40  31  70 W8        30.11R
SCOTTSBLUFF NE FAIR      28  19  69 CALM      30.07S
OMAHA NE       FAIR      37  29  72 CALM      30.01S
DES MOINES IA  FAIR      40  33  76 W8        29.95R
DAVENPORT IA   FAIR      42  35  76 NW13      29.85R
CHICAGO IL     FAIR      51  40  65 NW22G30   29.68R
EAU CLAIRE WI  FAIR      35  31  85 W10       29.73R
LA CROSSE WI   FAIR      41  34  76 W9        29.77R
$$

  *****  SOME NATIONAL WEATHER *****

CITY           SKY/WX    TMP DP  RH WIND       PRES   REMARKS
LA GUARDIA NY  FAIR      43  32  65 SW6       29.89F
RALEIGH NC     FAIR      30  27  88 CALM      29.95R
ATLANTA GA     FAIR      45  42  89 CALM      29.97S
NEW ORLEANS LA FAIR      43  40  89 CALM      30.01R
OKLAHOMA CITY  MOCLDY    57  36  45 NE12      29.90R
ALBUQUERQUE NM FAIR      48  23  37 E7        30.15R
SALT LAKE CITY CLOUDY    48  39  71 SE3       30.20S
LOS ANGELES CA FAIR      66  52  60 E5        29.94S
BOISE ID       FAIR      39  28  64 SE9       30.18R
SEATTLE WA     MOCLDY    49  38  65 SE9       30.10S
$$

*** WEATHER ACROSS MANITOBA...SASKATCHEWAN AND ONTARIO ***
                ***ONTARIO***

CITY           SKY/WX    TMP DP  RH WIND       PRES   REMARKS
GERALDTON      FLURRIES  19  16  86 NW12G23   29.50R WCI   7
THUNDER BAY    FLURRIES  32  23  69 NW13G22   29.57R WCI  22
SIOUX LOOKOUT  FLURRIES  12   5  73 NW15G23   29.72R WCI  -4
TORONTO        MOCLDY    48  30  49 SW16G23   29.51F
BIG TROUT LK   FLURRIES   3   0  85 NW17      29.66R WCI -17
PICKLE LAKE    NOT AVBL
DRYDEN         FLURRIES  14   7  73 NW15G24   29.74R WCI  -1
KENORA         PTCLDY     9   3  78 NW12G22   29.82R WCI  -6
$$
                *** MANITOBA***

CITY           SKY/WX    TMP DP  RH WIND       PRES   REMARKS
BRANDON        PTCLDY    12  10  92 CALM      29.94R
DAUPHIN        CLEAR      5   3  92 W5        29.95R WCI  -4
ISLAND LAKE    NOT AVBL
PILOT MOUND      N/A     16  12  86 N5          N/A  WCI   9
THE PAS        CLEAR      0  -6  78 NW6       29.91R WCI -12
THOMPSON       MOCLDY     0  -8  71 W10       29.83R WCI -17
WINNIPEG       CLEAR     10   5  79 NW9       29.95R WCI  -2
LYNN LAKE      CLOUDY    -4  -8  84 W6        29.83R WCI -16
CHURCHILL      FLURRIES   9   5  85 NW21G30   29.65R WCI -11
$$
                ***SASKATCHEWAN***

CITY           SKY/WX    TMP DP  RH WIND       PRES   REMARKS
ESTEVAN        CLEAR     21  19  93 S6        29.92R WCI  14
KINDERSLEY     CLEAR     25  23  93 SW7       29.82S WCI  17
LLOYDMINSTER   MOCLDY    27  25  93 S9        29.75F WCI  17
PRINCE ALBERT  CLOUDY     9   5  85 NE3       29.90R
REGINA         FOG       19  18  93 SW7       29.89S VSB 1/2 WCI  10
YORKTON          N/A     16   9  73 S6        29.90R WCI   7
N. BATTLEFORD  MOCLDY    19  16  86 E9        29.84F WC



USA.gov is the U.S. government's official web portal to all federal, state and local government web resources and services.